星链-35183(STARLINK-35183)

导读

STARLINK-35183是美国星链项目低轨卫星,于北京时间2025年9月18日成功发射,为星链星座组网补充卫星资源。它承担全球互联网覆盖任务,可为偏远地区、海上、航空场景提供高速宽带服务,支撑星链完成全球低延迟通信网络布局,服务民用互联网接入及部分特殊领域通信需求。

基本信息
目录编号:
65646
目录名称:
STARLINK-35183
国际标识:
2025-210AA
轨道中心:
EARTH
卫星名称:
星链-35183
卫星全名:
星链-35183(STARLINK-35183)
卫星状态:
在轨 (已飞行268 天)
发射日期:
2025-09-18 UTC
国别 :
美国 (US)
星等 :
--
轨道信息
数据来源 国际轨道数据
星历时间: 2026-06-13T05:22:52+0800
16小时前
查看轨道信息
半长轴: 6853.349km
偏心率: 0.000146
轨道倾角: 53.159°
近地点辐角 75.668°
升交点赤经 225.102°
平近点角 284.448°
近地点: 474.211km
远地点: 476.213km
周期: 94.105分钟
每日圈数: 15.302011
详细信息
固有亮度:
5
最大亮度:
2.5
卫星平台:
Starlink V1.0
覆盖范围:
全球
运营商:
太空探索技术公司
运营商所在国:
美国
制造商(研发单位):
太空探索技术公司
制造商所在国:
美国
使用方式:
暂无
卫星简介
Starlink 计划是 SpaceX 推出的全球卫星互联网项目,通过发射低轨道卫星,为全球尤其是偏远地区提供高速、低延迟的互联网服务。自 2019 年起,Starlink 已部署数千颗卫星,旨在缩小全球数字鸿沟,推动互联网普及。该项目还为军事、航空等行业提供通信支持,带来广泛经济效益。
2D轨道图
3D轨道图
轨道高度分析图
轨道倾角分析图
轨道综合分析图
查看轨道综合分析图